Flag for India Weather past 2 weeks in Ghazipur, Uttar Pradesh, India

Now
109 °F

Clear.


Feels Like: 121 °F
Forecast: 87 / 110 °F
Wind: 3 mph from North

Location: Varanasi / Babatpur

Current Time: May 25, 2015 at 5:29:04 PM

Latest Report: May 25, 2015 at 3:00 PM


Visibility: 4 mi

Pressure: 29.45 "Hg

Humidity: 30%

Dew point: 72 °F

Location of GhazipurLocation

Historic Weather in Ghazipur — Graph

°F

Ghazipur temperature yesterday

Maximum temperature yesterday: 113 °F (at 3:00 PM)
Minimum temperature yesterday: 88 °F (at 4:00 AM)
Average temperature yesterday: 101 °F

Past Weeks' High & Low Weather Summary

 TemperatureHumidityPressure
High113 °F (May 23, 1:00 PM)75% (May 25, 6:00 AM)29.80 "Hg (May 25, 6:00 AM)
Low81 °F (May 13, 6:00 AM)9% (May 23, 2:00 PM)29.36 "Hg (May 18, 6:00 PM)
Average95 °F40%29.60 "Hg
* Reported May 10 3:00 PM — May 25 3:00 PM, Ghazipur, Weather by CustomWeather, © 2015

Note: Actual official high and low records may vary slightly from our data, if they occured in-between our weather recording intervals... More about our weather records

Advertising

Ghazipur weather history for previous 24 hours

 ConditionsComfort  
Time TempWeatherWind HumidityBarometerVisibility
3:00 PM
Mon, May 25
109 °FClear.3 mph30%29.45 "Hg4 mi
2:00 PM108 °FClear.5 mph32%29.47 "Hg4 mi
12:00 PM102 °FHaze.2 mph40%29.53 "HgN/A
11:00 AM100 °FHaze.3 mph45%29.53 "Hg2 mi
10:00 AM97 °FHaze.5 mph50%29.56 "Hg2 mi
9:00 AM95 °FHaze.3 mph53%29.56 "Hg2 mi
8:00 AM90 °FClear.5 mph63%29.53 "Hg2 mi
7:00 AM88 °FHaze.9 mph66%29.53 "Hg2 mi
6:00 AM86 °FScattered clouds.7 mph75%29.50 "Hg2 mi
5:00 AM86 °FPassing clouds.9 mph59%29.50 "Hg2 mi
4:00 AM86 °FPassing clouds.13 mph49%29.50 "Hg3 mi
12:00 AM91 °FHaze.3 mph41%29.47 "Hg3 mi
11:00 PM
Sun, May 24
93 °FHaze.3 mph71%29.47 "Hg3 mi
10:00 PM97 °FHaze.5 mph30%29.47 "Hg3 mi
9:00 PM99 °FHaze.8 mph29%29.47 "Hg3 mi
8:00 PM100 °FHaze.5 mph24%29.47 "Hg3 mi
7:00 PM104 °FHaze.2 mph20%29.45 "Hg3 mi
5:00 PM111 °FClear.7 mph13%29.45 "Hg4 mi
Weather by CustomWeather, © 2015

See weather overviewHow to use our weather pages